Total_Precipitation_Accumulation
0.11 0.22 0.27 0.22 0.19 0.18 0.15 0.12 0.08 0.04 0.02 0.01 0.00 0.00 0.00 0.00 0.00 0.00 0.00 0.00 0.00 0.00 0.00 0.00 0.00 0.01 0.05 0.14 0.24 0.38 0.67 1.01 1.09 0.84 0.63 0.52 0.44 0.33 0.24 0.19 0.23 0.33 0.33 0.27
0.04 0.09 0.11 0.11 0.12 0.14 0.16 0.15 0.10 0.06 0.02 0.01 0.01 0.00 0.00 0.00 0.00 0.00 0.00 0.00 0.00 0.00 0.00 0.00 0.00 0.02 0.07 0.20 0.34 0.46 0.66 0.98 1.03 0.90 0.75 0.65 0.58 0.45 0.34 0.28 0.26 0.35 0.36 0.42
0.02 0.03 0.03 0.07 0.12 0.15 0.15 0.13 0.10 0.07 0.04 0.02 0.01 0.00 0.00 0.00 0.00 0.00 0.00 0.00 0.00 0.00 0.00 0.00 0.00 0.01 0.04 0.13 0.24 0.37 0.48 0.61 0.68 0.69 0.65 0.65 0.59 0.49 0.43 0.37 0.34 0.38 0.40 0.48
0.02 0.02 0.04 0.06 0.07 0.10 0.11 0.07 0.04 0.03 0.03 0.02 0.01 0.00 0.00 0.00 0.00 0.00 0.00 0.00 0.00 0.00 0.00 0.00 0.00 0.00 0.02 0.05 0.11 0.20 0.27 0.34 0.37 0.37 0.41 0.55 0.63 0.62 0.55 0.46 0.45 0.50 0.51 0.55
0.00 0.01 0.02 0.04 0.05 0.07 0.06 0.03 0.03 0.03 0.02 0.02 0.01 0.01 0.00 0.00 0.00 0.00 0.00 0.00 0.00 0.00 0.00 0.00 0.00 0.00 0.00 0.01 0.03 0.06 0.09 0.10 0.13 0.15 0.20 0.32 0.37 0.46 0.55 0.45 0.43 0.54 0.59 0.58
0.00 0.00 0.00 0.01 0.02 0.03 0.04 0.04 0.03 0.02 0.02 0.02 0.01 0.01 0.00 0.00 0.00 0.00 0.00 0.00 0.00 0.00 0.00 0.00 0.00 0.00 0.00 0.01 0.01 0.02 0.03 0.03 0.03 0.05 0.07 0.11 0.18 0.33 0.63 0.66 0.58 0.63 0.70 0.60
0.00 0.00 0.00 0.00 0.00 0.01 0.02 0.03 0.04 0.03 0.03 0.02 0.01 0.00 0.00 0.00 0.00 0.00 0.00 0.00 0.00 0.00 0.00 0.00 0.00 0.00 0.00 0.00 0.01 0.01 0.02 0.03 0.04 0.04 0.04 0.07 0.13 0.19 0.48 0.72 0.66 0.58 0.65 0.65
0.00 0.00 0.00 0.00 0.00 0.00 0.01 0.01 0.02 0.02 0.01 0.00 0.00 0.00 0.00 0.00 0.00 0.00 0.00 0.00 0.00 0.00 0.00 0.00 0.00 0.00 0.01 0.01 0.01 0.02 0.03 0.06 0.07 0.04 0.02 0.05 0.08 0.10 0.19 0.35 0.43 0.42 0.41 0.49
0.00 0.00 0.00 0.00 0.00 0.00 0.00 0.00 0.00 0.00 0.00 0.00 0.00 0.00 0.00 0.00 0.00 0.00 0.00 0.00 0.00 0.00 0.00 0.00 0.00 0.00 0.01 0.02 0.02 0.03 0.05 0.12 0.14 0.13 0.11 0.09 0.09 0.15 0.22 0.24 0.30 0.43 0.44 0.44
0.04 0.01 0.00 0.01 0.01 0.01 0.01 0.01 0.01 0.01 0.01 0.01 0.00 0.00 0.00 0.00 0.00 0.00 0.00 0.00 0.00 0.00 0.00 0.00 0.00 0.00 0.01 0.02 0.03 0.02 0.04 0.10 0.23 0.34 0.31 0.24 0.23 0.29 0.51 0.56 0.36 0.35 0.43 0.43
0.16 0.11 0.03 0.03 0.04 0.05 0.04 0.04 0.03 0.03 0.01 0.02 0.03 0.01 0.00 0.01 0.00 0.00 0.00 0.00 0.00 0.00 0.00 0.00 0.00 0.01 0.02 0.02 0.01 0.01 0.02 0.08 0.14 0.18 0.19 0.22 0.30 0.40 0.61 0.80 0.70 0.47 0.38 0.35
0.21 0.24 0.12 0.07 0.09 0.11 0.11 0.13 0.14 0.15 0.11 0.10 0.13 0.04 0.01 0.01 0.01 0.01 0.01 0.01 0.01 0.01 0.00 0.01 0.00 0.01 0.01 0.01 0.01 0.00 0.01 0.05 0.11 0.12 0.09 0.11 0.20 0.32 0.37 0.41 0.46 0.37 0.23 0.17
0.31 0.39 0.29 0.17 0.17 0.14 0.19 0.22 0.21 0.21 0.19 0.15 0.13 0.04 0.02 0.03 0.03 0.03 0.02 0.02 0.02 0.01 0.01 0.01 0.01 0.01 0.00 0.00 0.00 0.00 0.00 0.01 0.02 0.05 0.07 0.08 0.08 0.12 0.13 0.10 0.09 0.12 0.11 0.09
0.31 0.36 0.36 0.26 0.19 0.15 0.14 0.15 0.19 0.25 0.27 0.18 0.09 0.04 0.04 0.04 0.03 0.03 0.03 0.02 0.02 0.03 0.03 0.02 0.01 0.01 0.01 0.00 0.00 0.00 0.00 0.01 0.02 0.02 0.04 0.05 0.05 0.05 0.05 0.04 0.03 0.04 0.05 0.05
0.21 0.21 0.19 0.13 0.08 0.08 0.07 0.06 0.10 0.14 0.15 0.16 0.07 0.04 0.03 0.04 0.04 0.04 0.03 0.02 0.02 0.02 0.02 0.02 0.01 0.01 0.01 0.01 0.01 0.01 0.02 0.04 0.04 0.02 0.02 0.03 0.04 0.05 0.05 0.05 0.03 0.04 0.05 0.05
0.14 0.16 0.14 0.10 0.07 0.06 0.03 0.02 0.02 0.03 0.04 0.05 0.04 0.02 0.02 0.03 0.05 0.04 0.03 0.02 0.02 0.02 0.02 0.01 0.01 0.01 0.01 0.02 0.03 0.04 0.06 0.11 0.10 0.05 0.05 0.07 0.07 0.05 0.05 0.05 0.05 0.04 0.06 0.05
0.12 0.21 0.25 0.19 0.12 0.06 0.04 0.03 0.03 0.02 0.01 0.02 0.02 0.01 0.02 0.04 0.05 0.04 0.03 0.02 0.01 0.01 0.01 0.01 0.01 0.01 0.03 0.04 0.07 0.09 0.12 0.17 0.14 0.10 0.09 0.10 0.09 0.08 0.10 0.12 0.09 0.08 0.11 0.10
0.10 0.20 0.26 0.19 0.15 0.10 0.06 0.03 0.03 0.03 0.02 0.03 0.03 0.03 0.04 0.07 0.06 0.04 0.02 0.01 0.01 0.01 0.01 0.01 0.00 0.00 0.01 0.03 0.06 0.11 0.13 0.14 0.13 0.13 0.13 0.15 0.14 0.14 0.17 0.15 0.13 0.12 0.11 0.09
0.11 0.20 0.26 0.19 0.13 0.08 0.07 0.05 0.04 0.04 0.02 0.02 0.02 0.04 0.06 0.06 0.03 0.01 0.01 0.00 0.00 0.00 0.00 0.00 0.00 0.00 0.00 0.00 0.02 0.04 0.07 0.09 0.12 0.13 0.16 0.20 0.21 0.22 0.21 0.19 0.20 0.19 0.13 0.12
0.23 0.27 0.36 0.34 0.34 0.22 0.09 0.06 0.04 0.04 0.04 0.01 0.01 0.02 0.02 0.02 0.01 0.00 0.00 0.00 0.00 0.00 0.00 0.00 0.00 0.00 0.00 0.00 0.00 0.01 0.03 0.06 0.09 0.14 0.18 0.24 0.26 0.28 0.29 0.32 0.32 0.29 0.22 0.17
0.21 0.26 0.32 0.37 0.45 0.30 0.09 0.05 0.05 0.06 0.05 0.01 0.01 0.01 0.01 0.01 0.01 0.00 0.00 0.00 0.00 0.00 0.00 0.00 0.00 0.00 0.00 0.00 0.00 0.02 0.04 0.06 0.07 0.09 0.14 0.20 0.27 0.34 0.40 0.43 0.41 0.41 0.35 0.28
0.24 0.25 0.25 0.32 0.42 0.36 0.15 0.11 0.13 0.10 0.03 0.01 0.00 0.00 0.00 0.00 0.00 0.00 0.00 0.00 0.00 0.00 0.00 0.00 0.00 0.00 0.00 0.00 0.00 0.00 0.02 0.03 0.03 0.05 0.10 0.16 0.25 0.32 0.39 0.46 0.46 0.44 0.42 0.37
0.27 0.29 0.31 0.41 0.53 0.35 0.21 0.19 0.17 0.09 0.03 0.01 0.00 0.00 0.00 0.00 0.00 0.00 0.00 0.00 0.00 0.00 0.00 0.00 0.00 0.00 0.00 0.00 0.00 0.00 0.00 0.00 0.00 0.02 0.05 0.10 0.14 0.18 0.22 0.28 0.35 0.41 0.42 0.39
0.15 0.17 0.22 0.32 0.32 0.19 0.18 0.16 0.11 0.05 0.02 0.00 0.00 0.00 0.00 0.00 0.00 0.00 0.00 0.00 0.00 0.00 0.00 0.00 0.00 0.00 0.00 0.00 0.00 0.00 0.00 0.00 0.00 0.01 0.02 0.04 0.05 0.05 0.08 0.16 0.24 0.30 0.35 0.36
0.10 0.12 0.18 0.25 0.25 0.15 0.10 0.10 0.07 0.03 0.01 0.00 0.00 0.00 0.00 0.00 0.00 0.00 0.00 0.00 0.00 0.00 0.00 0.00 0.00 0.00 0.00 0.00 0.00 0.00 0.00 0.00 0.01 0.01 0.01 0.01 0.03 0.04 0.07 0.13 0.20 0.24 0.29 0.28
0.07 0.11 0.17 0.24 0.23 0.17 0.08 0.07 0.04 0.02 0.01 0.00 0.00 0.00 0.00 0.00 0.00 0.00 0.00 0.00 0.00 0.00 0.00 0.00 0.00 0.00 0.00 0.00 0.00 0.01 0.03 0.01 0.04 0.06 0.02 0.02 0.02 0.04 0.06 0.09 0.10 0.10 0.13 0.11